Regional Weather Roundup
Issued by NWS Sterling, VA

Home | Current Version | Previous Version | Graphics & Text | Print | Product List | Glossary On
Versions: 1 2 3 4 5 6 7 8 9 10 11 12 13 14 15 16 17 18 19 20 21 22 23 24 25 26 27 28 29 30 31 32 33 34 35 36 37 38 39 40 41 42 43 44 45 46 47 48 49 50
000
ASUS41 KLWX 282010
RWRLWX

REGIONAL WEATHER ROUNDUP
NATIONAL WEATHER SERVICE BALTIMORE MD/WASHINGTON DC
400 PM EDT THU AUG 28 2014

Note: "FAIR" indicates few or no clouds below 12,000 feet
with no significant weather and/or obstructions to visibility.
 TC=TEMPERATURE CELSIUS

 * =Non NWS site. Station does not report precipitation (e.g. rain,
    snow, etc.), thunder, or fog.

DCZ001-MDZ009-015-VAZ040>042-051-053>054-282100-
WASHINGTON METRO
  /KDAA//-FT BELVOIR

CITY           SKY/WX    TMP DP  RH WIND       PRES   REMARKS
WASHINGTON NAT MOSUNNY   83  57  41 NW12G21   29.97S
DULLES         MOSUNNY   81  60  48 N10       29.97F
ANDREWS AFB    MOSUNNY   82  59  45 NW13G18   29.96S
QUANTICO       SUNNY     85  60  42 N7        29.97S
COLLEGE PARK*  SUNNY     82  55  39 N9        29.96S
LEESBURG*      MOSUNNY   81  61  50 N5        29.98F
MANASSAS*      SUNNY     84  61  45 NW14G20   29.97F
GAITHERSBURG*  SUNNY     79  57  47 NW8       30.01S

$$

MDZ006>007-011-014-282100-
BALTIMORE METRO

CITY           SKY/WX    TMP DP  RH WIND       PRES   REMARKS
BWI AIRPORT    MOSUNNY   83  54  36 NW13G25   29.95S
MD SCIENCE CTR   N/A     82  57  42 MISG      29.95S
MARTIN STATE   MOSUNNY   82  61  47 NW9G18    29.96F
ANNAPOLIS      MOSUNNY   81  58  45 NW12      29.94S
FORT MEADE*    SUNNY     81  55  41 W12G17    29.98S

$$

MDZ012-015-019>023-282100-
MARYLAND EASTERN SHORE

CITY           SKY/WX    TMP DP  RH WIND       PRES   REMARKS
OCEAN CITY     SUNNY     86  62  44 W9        29.91F
SALISBURY      SUNNY     85  59  41 NW13G20   29.93R
BAY BRIDGE AP*   N/A     81  57  44 N12       29.94F
CAMBRIDGE*     SUNNY     81  59  47 NW7       29.94S

$$

MDZ017>025-282100-
SOUTHERN MARYLAND

CITY           SKY/WX    TMP DP  RH WIND       PRES   REMARKS
PATUXENT RIVER MOSUNNY   84  64  50 NE10      29.93F
ST INIGOES     MOSUNNY   84  61  45 W12       29.93S
LEONARDTOWN*   SUNNY     84  52  32 NW9       29.96R

$$

MDZ003>005-282100-
NORTH CENTRAL MARYLAND

CITY           SKY/WX    TMP DP  RH WIND       PRES   REMARKS
FREDERICK*     SUNNY     82  61  47 N9        30.00F
HAGERSTOWN APT SUNNY     79  52  38 N13       30.00S
WESTMINSTER*   SUNNY     81  50  34 NW9G16    29.99S

$$

MDZ501>502-282100-
WESTERN MARYLAND

CITY           SKY/WX    TMP DP  RH WIND       PRES   REMARKS
OAKLAND*       SUNNY     66  48  52 NW6       30.13S
CUMBERLAND*    SUNNY     82  46  28 N12G20    30.06F

$$

VAZ025>031-282100-
SHENANDOAH VALLEY

CITY           SKY/WX    TMP DP  RH WIND       PRES   REMARKS
WINCHESTER*    SUNNY     82  48  30 NW5       29.99S
STAUNTON*      SUNNY     87  57  37 NE8       30.01F

$$

WVZ021-048>050-054>055-282100-
EASTERN WEST VIRGINIA PANHANDLE

CITY           SKY/WX    TMP DP  RH WIND       PRES   REMARKS
MARTINSBURG    SUNNY     83  48  29 N10G21    29.99F
PETERSBURG*    NOT AVBL

$$

VAZ036>039-050-282100-
CENTRAL FOOTHILLS

CITY           SKY/WX    TMP DP  RH WIND       PRES   REMARKS
CHARLOTTESVILL SUNNY     87  62  43 CALM      29.96F
ORANGE*        SUNNY     86  61  42 CALM      29.98S

$$

VAZ055>057-282100-
NORTH AND CENTRAL PIEDMONT

CITY           SKY/WX    TMP DP  RH WIND       PRES   REMARKS
FREDERICKSBRG* SUNNY     87  60  39 NW5       29.95F
STAFFORD*      SUNNY     83  63  50 NW6       30.00F

$$

NCZ024-NYZ072-PAZ021-071-VAZ022-071-282100-
OTHER REGIONAL OBSERVATIONS

CITY           SKY/WX    TMP DP  RH WIND       PRES   REMARKS
NEW YORK CITY  MOSUNNY   80  48  32 MISG      29.91S
PHILADELPHIA   MOSUNNY   80  53  39 NW18G25   29.94R
PITTSBURGH     MOSUNNY   73  52  47 NW9G17    30.10S
ROANOKE        MOSUNNY   88  64  44 NW9       30.02F
RICHMOND       PTSUNNY   91  59  33 N12       29.94F HX  90
RALEIGH        MOSUNNY   91  70  49 W6        29.96F HX  96

$$

ANZ530>537-282100-
MARINE OBSERVATIONS

STATION/POSITION TIME  TEMP    WIND        PRES
                       AIR SEA DIR/SP/G
                 (UTC) (F)     (DEG/KT/KT) (MB)
THOMAS PT LIGHT  2000   80 79  320/ 11/ 12 1014.9R
BALT KEY BRIDGE  2000   86     300/  9/ 12 1013.9R
COVE POINT       2000   78      20/  8/ 10 1013.8S
LEWISETTA        2000   83 80  310/  8/ 10 1013.4S
SOLOMONS ISLAND  2000      81                N/A
PINEY POINT      2000          310/ 15/ 17   N/A

$$




USA.gov is the U.S. government's official web portal to all federal, state and local government web resources and services.